Location: *
(46.1333°S, 161.2167°W)
Time: 10:00:43
(UTC+00:00)

Cosmos 2298 Rocket - Pass Details

Date: 25 October 2020
Orbit: 777 x 783 km, 74.0° (Epoch: 25 November)

Event Time Altitude Azimuth Distance (km) Brightness Sun altitude
Exits shadow 12:12:22 70° 240° (WSW) 845 4.1 -27.1°
Drops below altitude 10° 12:17:41 10° 162° (SSE) 2,375 7.5 -26.6°
Sets 12:20:07 0° 159° (SSE) 3,311 8.6 -26.4°
